{"data":{"norad_id":57737,"epoch":"2026-05-24T23:09:38.331072Z","epoch_age_seconds":92129,"freshness":"FRESH","line1":"1 57737U 23131F   26144.96502698 -.00000786  00000+0 -38810-4 0  9997","line2":"2 57737  43.0023 115.1645 0000140   0.7744 359.3099 15.06017915151429","mean_motion":15.06017915,"eccentricity":1.4e-5,"inclination_deg":43.0023,"raan_deg":115.1645,"arg_perigee_deg":0.7744,"mean_anomaly_deg":359.3099,"bstar":-3.881e-5,"rev_number":15142,"period_min":95.616392451746,"perigee_km":548.28586972997,"apogee_km":548.47981228551,"semimajor_km":6926.5198410077,"source":"CELESTRAK","updated_at":"2026-05-25T13:38:18.398549Z"}}